Year,Month,Day,Hour,Minute,Value (Times are PST for windgust in km/hr)
2015,12,05,00,00,8.10
2015,12,05,00,01,11.30
2015,12,05,00,02,14.50
2015,12,05,00,03,14.50
2015,12,05,00,04,11.30
2015,12,05,00,05,12.90
2015,12,05,00,06,12.90
2015,12,05,00,07,16.10
2015,12,05,00,08,12.90
2015,12,05,00,09,8.10
2015,12,05,00,10,12.90
2015,12,05,00,11,8.10
2015,12,05,00,12,20.90
2015,12,05,00,13,8.10
2015,12,05,00,14,6.40
2015,12,05,00,15,8.10
2015,12,05,00,16,6.40
2015,12,05,00,17,4.80
2015,12,05,00,18,6.40
2015,12,05,00,19,9.60
2015,12,05,00,20,12.90
2015,12,05,00,21,11.30
2015,12,05,00,22,14.50
2015,12,05,00,23,22.50
2015,12,05,00,24,12.90
2015,12,05,00,25,17.70
2015,12,05,00,26,14.50
2015,12,05,00,27,11.30
2015,12,05,00,28,14.50
2015,12,05,00,29,11.30
2015,12,05,00,30,19.30
2015,12,05,00,31,14.50
2015,12,05,00,32,19.30
2015,12,05,00,33,30.60
2015,12,05,00,34,32.20
2015,12,05,00,35,24.20
2015,12,05,00,36,11.30
2015,12,05,00,37,17.70
2015,12,05,00,38,14.50
2015,12,05,00,39,14.50
2015,12,05,00,40,22.50
2015,12,05,00,41,16.10
2015,12,05,00,42,11.30
2015,12,05,00,43,24.20
2015,12,05,00,44,11.30
2015,12,05,00,45,14.50
2015,12,05,00,46,20.90
2015,12,05,00,47,19.30
2015,12,05,00,48,25.70
2015,12,05,00,49,25.70
2015,12,05,00,50,22.50
2015,12,05,00,51,11.30
2015,12,05,00,52,11.30
2015,12,05,00,53,9.60
2015,12,05,00,54,14.50
2015,12,05,00,55,24.20
2015,12,05,00,56,25.70
2015,12,05,00,57,19.30
2015,12,05,00,58,27.40
2015,12,05,00,59,11.30
2015,12,05,01,00,8.10
2015,12,05,01,01,8.10
2015,12,05,01,02,27.40
2015,12,05,01,03,12.90
2015,12,05,01,04,6.40
2015,12,05,01,05,9.60
2015,12,05,01,06,9.60
2015,12,05,01,07,4.80
2015,12,05,01,08,3.20
2015,12,05,01,09,6.40
2015,12,05,01,10,19.30
2015,12,05,01,11,14.50
2015,12,05,01,12,32.20
2015,12,05,01,13,16.10
2015,12,05,01,14,19.30
2015,12,05,01,15,22.50
2015,12,05,01,16,12.90
2015,12,05,01,17,25.70
2015,12,05,01,18,19.30
2015,12,05,01,19,17.70
2015,12,05,01,20,12.90
2015,12,05,01,21,20.90
2015,12,05,01,22,19.30
2015,12,05,01,23,14.50
2015,12,05,01,24,35.40
2015,12,05,01,25,27.40
2015,12,05,01,26,22.50
2015,12,05,01,27,16.10
2015,12,05,01,28,20.90
2015,12,05,01,29,29.00
2015,12,05,01,30,22.50
2015,12,05,01,31,30.60
2015,12,05,01,32,24.20
2015,12,05,01,33,11.30
2015,12,05,01,34,30.60
2015,12,05,01,35,41.80
2015,12,05,01,36,32.20
2015,12,05,01,37,33.80
2015,12,05,01,38,32.20
2015,12,05,01,39,30.60
2015,12,05,01,40,24.20
2015,12,05,01,41,19.30
2015,12,05,01,42,12.90
2015,12,05,01,43,19.30
2015,12,05,01,44,33.80
2015,12,05,01,45,20.90
2015,12,05,01,46,32.20
2015,12,05,01,47,30.60
2015,12,05,01,48,27.40
2015,12,05,01,49,20.90
2015,12,05,01,50,22.50
2015,12,05,01,51,38.60
2015,12,05,01,52,27.40
2015,12,05,01,53,20.90
2015,12,05,01,54,25.70
2015,12,05,01,55,29.00
2015,12,05,01,56,30.60
2015,12,05,01,57,20.90
2015,12,05,01,58,25.70
2015,12,05,01,59,17.70
2015,12,05,02,00,32.20
2015,12,05,02,01,27.40
2015,12,05,02,02,27.40
2015,12,05,02,03,19.30
2015,12,05,02,04,30.60
2015,12,05,02,05,29.00
2015,12,05,02,06,33.80
2015,12,05,02,07,37.00
2015,12,05,02,08,22.50
2015,12,05,02,09,30.60
2015,12,05,02,10,29.00
2015,12,05,02,11,22.50
2015,12,05,02,12,29.00
2015,12,05,02,13,24.20
2015,12,05,02,14,27.40
2015,12,05,02,15,19.30
2015,12,05,02,16,30.60
2015,12,05,02,17,30.60
2015,12,05,02,18,29.00
2015,12,05,02,19,24.20
2015,12,05,02,20,33.80
2015,12,05,02,21,32.20
2015,12,05,02,22,24.20
2015,12,05,02,23,24.20
2015,12,05,02,24,25.70
2015,12,05,02,25,32.20
2015,12,05,02,26,29.00
2015,12,05,02,27,22.50
2015,12,05,02,28,24.20
2015,12,05,02,29,19.30
2015,12,05,02,30,25.70
2015,12,05,02,31,33.80
2015,12,05,02,32,32.20
2015,12,05,02,33,48.30
2015,12,05,02,34,27.40
2015,12,05,02,35,29.00
2015,12,05,02,36,20.90
2015,12,05,02,37,45.10
2015,12,05,02,38,25.70
2015,12,05,02,39,25.70
2015,12,05,02,40,35.40
2015,12,05,02,41,29.00
2015,12,05,02,42,37.00
2015,12,05,02,43,29.00
2015,12,05,02,44,22.50
2015,12,05,02,45,24.20
2015,12,05,02,46,27.40
2015,12,05,02,47,22.50
2015,12,05,02,48,29.00
2015,12,05,02,49,24.20
2015,12,05,02,50,37.00
2015,12,05,02,51,37.00
2015,12,05,02,52,35.40
2015,12,05,02,53,19.30
2015,12,05,02,54,27.40
2015,12,05,02,55,33.80
2015,12,05,02,56,29.00
2015,12,05,02,57,27.40
2015,12,05,02,58,25.70
2015,12,05,02,59,20.90
2015,12,05,03,00,22.50
2015,12,05,03,01,17.70
2015,12,05,03,02,19.30
2015,12,05,03,03,17.70
2015,12,05,03,04,32.20
2015,12,05,03,05,24.20
2015,12,05,03,06,29.00
2015,12,05,03,07,29.00
2015,12,05,03,08,29.00
2015,12,05,03,09,19.30
2015,12,05,03,10,25.70
2015,12,05,03,11,27.40
2015,12,05,03,12,35.40
2015,12,05,03,13,22.50
2015,12,05,03,14,25.70
2015,12,05,03,15,27.40
2015,12,05,03,16,20.90
2015,12,05,03,17,27.40
2015,12,05,03,18,19.30
2015,12,05,03,19,29.00
2015,12,05,03,20,16.10
2015,12,05,03,21,38.60
2015,12,05,03,22,25.70
2015,12,05,03,23,27.40
2015,12,05,03,24,25.70
2015,12,05,03,25,16.10
2015,12,05,03,26,17.70
2015,12,05,03,27,20.90
2015,12,05,03,28,22.50
2015,12,05,03,29,25.70
2015,12,05,03,30,24.20
2015,12,05,03,31,24.20
2015,12,05,03,32,22.50
2015,12,05,03,33,19.30
2015,12,05,03,34,30.60
2015,12,05,03,35,17.70
2015,12,05,03,36,19.30
2015,12,05,03,37,17.70
2015,12,05,03,38,20.90
2015,12,05,03,39,24.20
2015,12,05,03,40,24.20
2015,12,05,03,41,43.50
2015,12,05,03,42,22.50
2015,12,05,03,43,38.60
2015,12,05,03,44,37.00
2015,12,05,03,45,33.80
2015,12,05,03,46,32.20
2015,12,05,03,47,30.60
2015,12,05,03,48,35.40
2015,12,05,03,49,35.40
2015,12,05,03,50,20.90
2015,12,05,03,51,33.80
2015,12,05,03,52,37.00
2015,12,05,03,53,17.70
2015,12,05,03,54,30.60
2015,12,05,03,55,35.40
2015,12,05,03,56,41.80
2015,12,05,03,57,29.00
2015,12,05,03,58,32.20
2015,12,05,03,59,29.00
2015,12,05,04,00,35.40
2015,12,05,04,01,37.00
2015,12,05,04,02,38.60
2015,12,05,04,03,29.00
2015,12,05,04,04,33.80
2015,12,05,04,05,37.00
2015,12,05,04,06,30.60
2015,12,05,04,07,25.70
2015,12,05,04,08,35.40
2015,12,05,04,09,35.40
2015,12,05,04,10,40.20
2015,12,05,04,11,30.60
2015,12,05,04,12,25.70
2015,12,05,04,13,33.80
2015,12,05,04,14,32.20
2015,12,05,04,15,32.20
2015,12,05,04,16,29.00
2015,12,05,04,17,35.40
2015,12,05,04,18,38.60
2015,12,05,04,19,38.60
2015,12,05,04,20,38.60
2015,12,05,04,21,46.70
2015,12,05,04,22,35.40
2015,12,05,04,23,29.00
2015,12,05,04,24,30.60
2015,12,05,04,25,38.60
2015,12,05,04,26,32.20
2015,12,05,04,27,32.20
2015,12,05,04,28,33.80
2015,12,05,04,29,46.70
2015,12,05,04,30,38.60
2015,12,05,04,31,33.80
2015,12,05,04,32,32.20
2015,12,05,04,33,32.20
2015,12,05,04,34,41.80
2015,12,05,04,35,30.60
2015,12,05,04,36,38.60
2015,12,05,04,37,46.70
2015,12,05,04,38,37.00
2015,12,05,04,39,41.80
2015,12,05,04,40,24.20
2015,12,05,04,41,24.20
2015,12,05,04,42,25.70
2015,12,05,04,43,35.40
2015,12,05,04,44,43.50
2015,12,05,04,45,40.20
2015,12,05,04,46,29.00
2015,12,05,04,47,27.40
2015,12,05,04,48,46.70
2015,12,05,04,49,38.60
2015,12,05,04,50,35.40
2015,12,05,04,51,41.80
2015,12,05,04,52,32.20
2015,12,05,04,53,32.20
2015,12,05,04,54,46.70
2015,12,05,04,55,35.40
2015,12,05,04,56,53.10
2015,12,05,04,57,38.60
2015,12,05,04,58,43.50
2015,12,05,04,59,38.60
2015,12,05,05,00,33.80
2015,12,05,05,01,40.20
2015,12,05,05,02,41.80
2015,12,05,05,03,29.00
2015,12,05,05,04,35.40
2015,12,05,05,05,41.80
2015,12,05,05,06,37.00
2015,12,05,05,07,43.50
2015,12,05,05,08,62.70
2015,12,05,05,09,38.60
2015,12,05,05,10,37.00
2015,12,05,05,11,40.20
2015,12,05,05,12,45.10
2015,12,05,05,13,61.20
2015,12,05,05,14,67.60
2015,12,05,05,15,49.90
2015,12,05,05,16,49.90
2015,12,05,05,17,40.20
2015,12,05,05,18,49.90
2015,12,05,05,19,54.70
2015,12,05,05,20,46.70
2015,12,05,05,21,25.70
2015,12,05,05,22,38.60
2015,12,05,05,23,37.00
2015,12,05,05,24,43.50
2015,12,05,05,25,46.70
2015,12,05,05,26,37.00
2015,12,05,05,27,38.60
2015,12,05,05,28,46.70
2015,12,05,05,29,24.20
2015,12,05,05,30,32.20
2015,12,05,05,31,38.60
2015,12,05,05,32,40.20
2015,12,05,05,33,49.90
2015,12,05,05,34,45.10
2015,12,05,05,35,37.00
2015,12,05,05,36,30.60
2015,12,05,05,37,46.70
2015,12,05,05,38,40.20
2015,12,05,05,39,46.70
2015,12,05,05,40,37.00
2015,12,05,05,41,30.60
2015,12,05,05,42,32.20
2015,12,05,05,43,40.20
2015,12,05,05,44,48.30
2015,12,05,05,45,48.30
2015,12,05,05,46,30.60
2015,12,05,05,47,40.20
2015,12,05,05,48,56.30
2015,12,05,05,49,35.40
2015,12,05,05,50,59.50
2015,12,05,05,51,59.50
2015,12,05,05,52,38.60
2015,12,05,05,53,43.50
2015,12,05,05,54,43.50
2015,12,05,05,55,35.40
2015,12,05,05,56,49.90
2015,12,05,05,57,41.80
2015,12,05,05,58,64.40
2015,12,05,05,59,54.70
2015,12,05,06,00,53.10
2015,12,05,06,01,59.50
2015,12,05,06,02,43.50
2015,12,05,06,03,56.30
2015,12,05,06,04,59.50
2015,12,05,06,05,49.90
2015,12,05,06,06,45.10
2015,12,05,06,07,32.20
2015,12,05,06,08,32.20
2015,12,05,06,09,51.50
2015,12,05,06,10,33.80
2015,12,05,06,11,33.80
2015,12,05,06,12,45.10
2015,12,05,06,13,43.50
2015,12,05,06,14,46.70
2015,12,05,06,15,33.80
2015,12,05,06,16,53.10
2015,12,05,06,17,59.50
2015,12,05,06,18,37.00
2015,12,05,06,19,38.60
2015,12,05,06,20,53.10
2015,12,05,06,21,54.70
2015,12,05,06,22,32.20
2015,12,05,06,23,32.20
2015,12,05,06,24,37.00
2015,12,05,06,25,25.70
2015,12,05,06,26,46.70
2015,12,05,06,27,46.70
2015,12,05,06,28,38.60
2015,12,05,06,29,57.90
2015,12,05,06,30,53.10
2015,12,05,06,31,35.40
2015,12,05,06,32,30.60
2015,12,05,06,33,33.80
2015,12,05,06,34,32.20
2015,12,05,06,35,35.40
2015,12,05,06,36,43.50
2015,12,05,06,37,24.20
2015,12,05,06,38,24.20
2015,12,05,06,39,43.50
2015,12,05,06,40,37.00
2015,12,05,06,41,54.70
2015,12,05,06,42,33.80
2015,12,05,06,43,25.70
2015,12,05,06,44,35.40
2015,12,05,06,45,33.80
2015,12,05,06,46,35.40
2015,12,05,06,47,25.70
2015,12,05,06,48,33.80
2015,12,05,06,49,30.60
2015,12,05,06,50,37.00
2015,12,05,06,51,38.60
2015,12,05,06,52,22.50
2015,12,05,06,53,30.60
2015,12,05,06,54,32.20
2015,12,05,06,55,27.40
2015,12,05,06,56,29.00
2015,12,05,06,57,25.70
2015,12,05,06,58,17.70
2015,12,05,06,59,16.10
2015,12,05,07,00,20.90
2015,12,05,07,01,17.70
2015,12,05,07,02,29.00
2015,12,05,07,03,12.90
2015,12,05,07,04,20.90
2015,12,05,07,05,25.70
2015,12,05,07,06,22.50
2015,12,05,07,07,17.70
2015,12,05,07,08,14.50
2015,12,05,07,09,17.70
2015,12,05,07,10,12.90
2015,12,05,07,11,22.50
2015,12,05,07,12,12.90
2015,12,05,07,13,17.70
2015,12,05,07,14,40.20
2015,12,05,07,15,19.30
2015,12,05,07,16,9.60
2015,12,05,07,17,22.50
2015,12,05,07,18,16.10
2015,12,05,07,19,25.70
2015,12,05,07,20,16.10
2015,12,05,07,21,16.10
2015,12,05,07,22,6.40
2015,12,05,07,23,11.30
2015,12,05,07,24,20.90
2015,12,05,07,25,14.50
2015,12,05,07,26,6.40
2015,12,05,07,27,14.50
2015,12,05,07,28,22.50
2015,12,05,07,29,12.90
2015,12,05,07,30,14.50
2015,12,05,07,31,14.50
2015,12,05,07,32,22.50
2015,12,05,07,33,20.90
2015,12,05,07,34,19.30
2015,12,05,07,35,22.50
2015,12,05,07,36,9.60
2015,12,05,07,37,14.50
2015,12,05,07,38,12.90
2015,12,05,07,39,11.30
2015,12,05,07,40,16.10
2015,12,05,07,41,20.90
2015,12,05,07,42,17.70
2015,12,05,07,43,27.40
2015,12,05,07,44,17.70
2015,12,05,07,45,24.20
2015,12,05,07,46,30.60
2015,12,05,07,47,29.00
2015,12,05,07,48,37.00
2015,12,05,07,49,43.50
2015,12,05,07,50,24.20
2015,12,05,07,51,12.90
2015,12,05,07,52,12.90
2015,12,05,07,53,22.50
2015,12,05,07,54,20.90
2015,12,05,07,55,35.40
2015,12,05,07,56,40.20
2015,12,05,07,57,25.70
2015,12,05,07,58,17.70
2015,12,05,07,59,11.30
2015,12,05,08,00,25.70
2015,12,05,08,01,27.40
2015,12,05,08,02,20.90
2015,12,05,08,03,17.70
2015,12,05,08,04,25.70
2015,12,05,08,05,22.50
2015,12,05,08,06,20.90
2015,12,05,08,07,22.50
2015,12,05,08,08,30.60
2015,12,05,08,09,30.60
2015,12,05,08,10,25.70
2015,12,05,08,11,32.20
2015,12,05,08,12,33.80
2015,12,05,08,13,30.60
2015,12,05,08,14,29.00
2015,12,05,08,15,29.00
2015,12,05,08,16,17.70
2015,12,05,08,17,27.40
2015,12,05,08,18,27.40
2015,12,05,08,19,12.90
2015,12,05,08,20,25.70
2015,12,05,08,21,22.50
2015,12,05,08,22,29.00
2015,12,05,08,23,22.50
2015,12,05,08,24,24.20
2015,12,05,08,25,14.50
2015,12,05,08,26,19.30
2015,12,05,08,27,22.50
2015,12,05,08,28,27.40
2015,12,05,08,29,16.10
2015,12,05,08,30,29.00
2015,12,05,08,31,12.90
2015,12,05,08,32,25.70
2015,12,05,08,33,37.00
2015,12,05,08,34,25.70
2015,12,05,08,35,38.60
2015,12,05,08,36,17.70
2015,12,05,08,37,25.70
2015,12,05,08,38,24.20
2015,12,05,08,39,19.30
2015,12,05,08,40,22.50
2015,12,05,08,41,14.50
2015,12,05,08,42,17.70
2015,12,05,08,43,24.20
2015,12,05,08,44,30.60
2015,12,05,08,45,32.20
2015,12,05,08,46,25.70
2015,12,05,08,47,22.50
2015,12,05,08,48,32.20
2015,12,05,08,49,25.70
2015,12,05,08,50,25.70
2015,12,05,08,51,17.70
2015,12,05,08,52,20.90
2015,12,05,08,53,24.20
2015,12,05,08,54,40.20
2015,12,05,08,55,29.00
2015,12,05,08,56,32.20
2015,12,05,08,57,32.20
2015,12,05,08,58,33.80
2015,12,05,08,59,27.40
2015,12,05,09,00,29.00
2015,12,05,09,01,30.60
2015,12,05,09,02,29.00
2015,12,05,09,03,41.80
2015,12,05,09,04,30.60
2015,12,05,09,05,30.60
2015,12,05,09,06,29.00
2015,12,05,09,07,32.20
2015,12,05,09,08,24.20
2015,12,05,09,09,41.80
2015,12,05,09,10,27.40
2015,12,05,09,11,33.80
2015,12,05,09,12,29.00
2015,12,05,09,13,38.60
2015,12,05,09,14,32.20
2015,12,05,09,15,24.20
2015,12,05,09,16,25.70
2015,12,05,09,17,33.80
2015,12,05,09,18,43.50
2015,12,05,09,19,46.70
2015,12,05,09,20,37.00
2015,12,05,09,21,27.40
2015,12,05,09,22,33.80
2015,12,05,09,23,38.60
2015,12,05,09,24,35.40
2015,12,05,09,25,35.40
2015,12,05,09,26,35.40
2015,12,05,09,27,38.60
2015,12,05,09,28,25.70
2015,12,05,09,29,27.40
2015,12,05,09,30,27.40
2015,12,05,09,31,32.20
2015,12,05,09,32,32.20
2015,12,05,09,33,38.60
2015,12,05,09,34,40.20
2015,12,05,09,35,30.60
2015,12,05,09,36,27.40
2015,12,05,09,37,46.70
2015,12,05,09,38,45.10
2015,12,05,09,39,45.10
2015,12,05,09,40,56.30
2015,12,05,09,41,40.20
2015,12,05,09,42,43.50
2015,12,05,09,43,51.50
2015,12,05,09,44,33.80
2015,12,05,09,45,51.50
2015,12,05,09,46,43.50
2015,12,05,09,47,48.30
2015,12,05,09,48,49.90
2015,12,05,09,49,41.80
2015,12,05,09,50,27.40
2015,12,05,09,51,43.50
2015,12,05,09,52,33.80
2015,12,05,09,53,35.40
2015,12,05,09,54,46.70
2015,12,05,09,55,35.40
2015,12,05,09,56,24.20
2015,12,05,09,57,32.20
2015,12,05,09,58,35.40
2015,12,05,09,59,45.10
2015,12,05,10,00,40.20
2015,12,05,10,01,43.50
2015,12,05,10,02,57.90
2015,12,05,10,03,46.70
2015,12,05,10,04,51.50
2015,12,05,10,05,54.70
2015,12,05,10,06,45.10
2015,12,05,10,07,37.00
2015,12,05,10,08,43.50
2015,12,05,10,09,41.80
2015,12,05,10,10,43.50
2015,12,05,10,11,46.70
2015,12,05,10,12,46.70
2015,12,05,10,13,38.60
2015,12,05,10,14,45.10
2015,12,05,10,15,40.20
2015,12,05,10,16,43.50
2015,12,05,10,17,38.60
2015,12,05,10,18,45.10
2015,12,05,10,19,38.60
2015,12,05,10,20,40.20
2015,12,05,10,21,35.40
2015,12,05,10,22,41.80
2015,12,05,10,23,35.40
2015,12,05,10,24,35.40
2015,12,05,10,25,30.60
2015,12,05,10,26,43.50
2015,12,05,10,27,40.20
2015,12,05,10,28,41.80
2015,12,05,10,29,33.80
2015,12,05,10,30,29.00
2015,12,05,10,31,48.30
2015,12,05,10,32,29.00
2015,12,05,10,33,48.30
2015,12,05,10,34,37.00
2015,12,05,10,35,27.40
2015,12,05,10,36,43.50
2015,12,05,10,37,33.80
2015,12,05,10,38,29.00
2015,12,05,10,39,33.80
2015,12,05,10,40,37.00
2015,12,05,10,41,49.90
2015,12,05,10,42,25.70
2015,12,05,10,43,37.00
2015,12,05,10,44,32.20
2015,12,05,10,45,53.10
2015,12,05,10,46,27.40
2015,12,05,10,47,27.40
2015,12,05,10,48,32.20
2015,12,05,10,49,45.10
2015,12,05,10,50,27.40
2015,12,05,10,51,33.80
2015,12,05,10,52,49.90
2015,12,05,10,53,38.60
2015,12,05,10,54,41.80
2015,12,05,10,55,41.80
2015,12,05,10,56,40.20
2015,12,05,10,57,29.00
2015,12,05,10,58,41.80
2015,12,05,10,59,43.50
2015,12,05,11,00,51.50
2015,12,05,11,01,38.60
2015,12,05,11,02,30.60
2015,12,05,11,03,33.80
2015,12,05,11,04,37.00
2015,12,05,11,05,38.60
2015,12,05,11,06,33.80
2015,12,05,11,07,35.40
2015,12,05,11,08,43.50
2015,12,05,11,09,51.50
2015,12,05,11,10,54.70
2015,12,05,11,11,43.50
2015,12,05,11,12,46.70
2015,12,05,11,13,45.10
2015,12,05,11,14,46.70
2015,12,05,11,15,48.30
2015,12,05,11,16,43.50
2015,12,05,11,17,46.70
2015,12,05,11,18,43.50
2015,12,05,11,19,48.30
2015,12,05,11,20,54.70
2015,12,05,11,21,46.70
2015,12,05,11,22,46.70
2015,12,05,11,23,56.30
2015,12,05,11,24,62.70
2015,12,05,11,25,54.70
2015,12,05,11,26,53.10
2015,12,05,11,27,46.70
2015,12,05,11,28,46.70
2015,12,05,11,29,41.80
2015,12,05,11,30,46.70
2015,12,05,11,31,53.10
2015,12,05,11,32,54.70
2015,12,05,11,33,46.70
2015,12,05,11,34,54.70
2015,12,05,11,35,43.50
2015,12,05,11,36,54.70
2015,12,05,11,37,56.30
2015,12,05,11,38,43.50
2015,12,05,11,39,61.20
2015,12,05,11,40,45.10
2015,12,05,11,41,54.70
2015,12,05,11,42,43.50
2015,12,05,11,43,57.90
2015,12,05,11,44,46.70
2015,12,05,11,45,45.10
2015,12,05,11,46,48.30
2015,12,05,11,47,48.30
2015,12,05,11,48,46.70
2015,12,05,11,49,59.50
2015,12,05,11,50,49.90
2015,12,05,11,51,45.10
2015,12,05,11,52,49.90
2015,12,05,11,53,49.90
2015,12,05,11,54,53.10
2015,12,05,11,55,48.30
2015,12,05,11,56,48.30
2015,12,05,11,57,49.90
2015,12,05,11,58,41.80
2015,12,05,11,59,45.10
2015,12,05,12,00,45.10
2015,12,05,12,01,45.10
2015,12,05,12,02,41.80
2015,12,05,12,03,38.60
2015,12,05,12,04,41.80
2015,12,05,12,05,38.60
2015,12,05,12,06,45.10
2015,12,05,12,07,48.30
2015,12,05,12,08,57.90
2015,12,05,12,09,61.20
2015,12,05,12,10,53.10
2015,12,05,12,11,59.50
2015,12,05,12,12,45.10
2015,12,05,12,13,59.50
2015,12,05,12,14,53.10
2015,12,05,12,15,64.40
2015,12,05,12,16,41.80
2015,12,05,12,17,54.70
2015,12,05,12,18,32.20
2015,12,05,12,19,25.70
2015,12,05,12,20,43.50
2015,12,05,12,21,43.50
2015,12,05,12,22,33.80
2015,12,05,12,23,37.00
2015,12,05,12,24,40.20
2015,12,05,12,25,43.50
2015,12,05,12,26,46.70
2015,12,05,12,27,45.10
2015,12,05,12,28,40.20
2015,12,05,12,29,53.10
2015,12,05,12,30,49.90
2015,12,05,12,31,61.20
2015,12,05,12,32,46.70
2015,12,05,12,33,46.70
2015,12,05,12,34,56.30
2015,12,05,12,35,56.30
2015,12,05,12,36,48.30
2015,12,05,12,37,37.00
2015,12,05,12,38,46.70
2015,12,05,12,39,49.90
2015,12,05,12,40,46.70
2015,12,05,12,41,64.40
2015,12,05,12,42,61.20
2015,12,05,12,43,57.90
2015,12,05,12,44,45.10
2015,12,05,12,45,54.70
2015,12,05,12,46,67.60
2015,12,05,12,47,51.50
2015,12,05,12,48,62.70
2015,12,05,12,49,59.50
2015,12,05,12,50,59.50
2015,12,05,12,51,56.30
2015,12,05,12,52,57.90
2015,12,05,12,53,57.90
2015,12,05,12,54,49.90
2015,12,05,12,55,56.30
2015,12,05,12,56,35.40
2015,12,05,12,57,43.50
2015,12,05,12,58,41.80
2015,12,05,12,59,48.30
2015,12,05,13,00,46.70
2015,12,05,13,01,46.70
2015,12,05,13,02,38.60
2015,12,05,13,03,29.00
2015,12,05,13,04,43.50
2015,12,05,13,05,41.80
2015,12,05,13,06,62.70
2015,12,05,13,07,43.50
2015,12,05,13,08,45.10
2015,12,05,13,09,45.10
2015,12,05,13,10,40.20
2015,12,05,13,11,51.50
2015,12,05,13,12,40.20
2015,12,05,13,13,48.30
2015,12,05,13,14,56.30
2015,12,05,13,15,62.70
2015,12,05,13,16,46.70
2015,12,05,13,17,51.50
2015,12,05,13,18,43.50
2015,12,05,13,19,45.10
2015,12,05,13,20,53.10
2015,12,05,13,21,46.70
2015,12,05,13,22,51.50
2015,12,05,13,23,53.10
2015,12,05,13,24,35.40
2015,12,05,13,25,43.50
2015,12,05,13,26,45.10
2015,12,05,13,27,51.50
2015,12,05,13,28,51.50
2015,12,05,13,29,48.30
2015,12,05,13,30,49.90
2015,12,05,13,31,32.20
2015,12,05,13,32,43.50
2015,12,05,13,33,56.30
2015,12,05,13,34,41.80
2015,12,05,13,35,51.50
2015,12,05,13,36,57.90
2015,12,05,13,37,54.70
2015,12,05,13,38,49.90
2015,12,05,13,39,35.40
2015,12,05,13,40,49.90
2015,12,05,13,41,45.10
2015,12,05,13,42,45.10
2015,12,05,13,43,59.50
2015,12,05,13,44,59.50
2015,12,05,13,45,51.50
2015,12,05,13,46,48.30
2015,12,05,13,47,45.10
2015,12,05,13,48,48.30
2015,12,05,13,49,45.10
2015,12,05,13,50,32.20
2015,12,05,13,51,33.80
2015,12,05,13,52,53.10
2015,12,05,13,53,45.10
2015,12,05,13,54,37.00
2015,12,05,13,55,57.90
2015,12,05,13,56,53.10
2015,12,05,13,57,54.70
2015,12,05,13,58,45.10
2015,12,05,13,59,53.10
2015,12,05,14,00,69.20
2015,12,05,14,01,49.90
2015,12,05,14,02,41.80
2015,12,05,14,03,59.50
2015,12,05,14,04,62.70
2015,12,05,14,05,62.70
2015,12,05,14,06,38.60
2015,12,05,14,07,51.50
2015,12,05,14,08,46.70
2015,12,05,14,09,49.90
2015,12,05,14,10,48.30
2015,12,05,14,11,54.70
2015,12,05,14,12,46.70
2015,12,05,14,13,48.30
2015,12,05,14,14,49.90
2015,12,05,14,15,43.50
2015,12,05,14,16,37.00
2015,12,05,14,17,53.10
2015,12,05,14,18,57.90
2015,12,05,14,19,40.20
2015,12,05,14,20,54.70
2015,12,05,14,21,38.60
2015,12,05,14,22,40.20
2015,12,05,14,23,30.60
2015,12,05,14,24,51.50
2015,12,05,14,25,41.80
2015,12,05,14,26,49.90
2015,12,05,14,27,53.10
2015,12,05,14,28,37.00
2015,12,05,14,29,37.00
2015,12,05,14,30,37.00
2015,12,05,14,31,38.60
2015,12,05,14,32,48.30
2015,12,05,14,33,61.20
2015,12,05,14,34,48.30
2015,12,05,14,35,51.50
2015,12,05,14,36,43.50
2015,12,05,14,37,53.10
2015,12,05,14,38,48.30
2015,12,05,14,39,38.60
2015,12,05,14,40,56.30
2015,12,05,14,41,59.50
2015,12,05,14,42,54.70
2015,12,05,14,43,51.50
2015,12,05,14,44,48.30
2015,12,05,14,45,43.50
2015,12,05,14,46,29.00
2015,12,05,14,47,37.00
2015,12,05,14,48,40.20
2015,12,05,14,49,43.50
2015,12,05,14,50,40.20
2015,12,05,14,51,48.30
2015,12,05,14,52,30.60
2015,12,05,14,53,37.00
2015,12,05,14,54,41.80
2015,12,05,14,55,37.00
2015,12,05,14,56,59.50
2015,12,05,14,57,54.70
2015,12,05,14,58,46.70
2015,12,05,14,59,54.70
2015,12,05,15,00,40.20
2015,12,05,15,01,54.70
2015,12,05,15,02,59.50
2015,12,05,15,03,49.90
2015,12,05,15,04,57.90
2015,12,05,15,05,56.30
2015,12,05,15,06,51.50
2015,12,05,15,07,57.90
2015,12,05,15,08,49.90
2015,12,05,15,09,43.50
2015,12,05,15,10,57.90
2015,12,05,15,11,54.70
2015,12,05,15,12,49.90
2015,12,05,15,13,54.70
2015,12,05,15,14,46.70
2015,12,05,15,15,48.30
2015,12,05,15,16,51.50
2015,12,05,15,17,46.70
2015,12,05,15,18,40.20
2015,12,05,15,19,48.30
2015,12,05,15,20,38.60
2015,12,05,15,21,41.80
2015,12,05,15,22,35.40
2015,12,05,15,23,32.20
2015,12,05,15,24,30.60
2015,12,05,15,25,30.60
2015,12,05,15,26,30.60
2015,12,05,15,27,53.10
2015,12,05,15,28,30.60
2015,12,05,15,29,37.00
2015,12,05,15,30,56.30
2015,12,05,15,31,25.70
2015,12,05,15,32,35.40
2015,12,05,15,33,53.10
2015,12,05,15,34,53.10
2015,12,05,15,35,24.20
2015,12,05,15,36,24.20
2015,12,05,15,37,32.20
2015,12,05,15,38,29.00
2015,12,05,15,39,38.60
2015,12,05,15,40,20.90
2015,12,05,15,41,27.40
2015,12,05,15,42,33.80
2015,12,05,15,43,33.80
2015,12,05,15,44,38.60
2015,12,05,15,45,29.00
2015,12,05,15,46,32.20
2015,12,05,15,47,45.10
2015,12,05,15,48,45.10
2015,12,05,15,49,51.50
2015,12,05,15,50,46.70
2015,12,05,15,51,40.20
2015,12,05,15,52,33.80
2015,12,05,15,53,35.40
2015,12,05,15,54,29.00
2015,12,05,15,55,56.30
2015,12,05,15,56,41.80
2015,12,05,15,57,43.50
2015,12,05,15,58,57.90
2015,12,05,15,59,43.50
2015,12,05,16,00,35.40
2015,12,05,16,01,59.50
2015,12,05,16,02,46.70
2015,12,05,16,03,46.70
2015,12,05,16,04,40.20
2015,12,05,16,05,29.00
2015,12,05,16,06,38.60
2015,12,05,16,07,30.60
2015,12,05,16,08,27.40
2015,12,05,16,09,41.80
2015,12,05,16,10,37.00
2015,12,05,16,11,35.40
2015,12,05,16,12,27.40
2015,12,05,16,13,24.20
2015,12,05,16,14,32.20
2015,12,05,16,15,35.40
2015,12,05,16,16,32.20
2015,12,05,16,17,38.60
2015,12,05,16,18,27.40
2015,12,05,16,19,35.40
2015,12,05,16,20,29.00
2015,12,05,16,21,33.80
2015,12,05,16,22,30.60
2015,12,05,16,23,46.70
2015,12,05,16,24,37.00
2015,12,05,16,25,32.20
2015,12,05,16,26,40.20
2015,12,05,16,27,22.50
2015,12,05,16,28,25.70
2015,12,05,16,29,40.20
2015,12,05,16,30,22.50
2015,12,05,16,31,40.20
2015,12,05,16,32,40.20
2015,12,05,16,33,27.40
2015,12,05,16,34,35.40
2015,12,05,16,35,32.20
2015,12,05,16,36,43.50
2015,12,05,16,37,35.40
2015,12,05,16,38,24.20
2015,12,05,16,39,32.20
2015,12,05,16,40,40.20
2015,12,05,16,41,33.80
2015,12,05,16,42,30.60
2015,12,05,16,43,19.30
2015,12,05,16,44,32.20
2015,12,05,16,45,24.20
2015,12,05,16,46,38.60
2015,12,05,16,47,27.40
2015,12,05,16,48,45.10
2015,12,05,16,49,54.70
2015,12,05,16,50,33.80
2015,12,05,16,51,24.20
2015,12,05,16,52,35.40
2015,12,05,16,53,35.40
2015,12,05,16,54,48.30
2015,12,05,16,55,30.60
2015,12,05,16,56,30.60
2015,12,05,16,57,27.40
2015,12,05,16,58,20.90
2015,12,05,16,59,25.70
2015,12,05,17,00,32.20
2015,12,05,17,01,24.20
2015,12,05,17,02,43.50
2015,12,05,17,03,29.00
2015,12,05,17,04,24.20
2015,12,05,17,05,30.60
2015,12,05,17,06,27.40
2015,12,05,17,07,37.00
2015,12,05,17,08,54.70
2015,12,05,17,09,37.00
2015,12,05,17,10,54.70
2015,12,05,17,11,29.00
2015,12,05,17,12,48.30
2015,12,05,17,13,35.40
2015,12,05,17,14,32.20
2015,12,05,17,15,37.00
2015,12,05,17,16,43.50
2015,12,05,17,17,43.50
2015,12,05,17,18,41.80
2015,12,05,17,19,30.60
2015,12,05,17,20,33.80